GW1682 Weather Reports


Display with metric or nautical units.
time (UTC)temp
F
wind
direction
speed
MPH
gust
MPH
rain 1hr
in
rain 24hr
in
rain mn
in
humidity
%
barometer
mb
20260503010027 48 0 2.0 7.0 0.00 0.01 0.01 74 1014.7
20260503004518 48 358 4.0 10.0 0.00 0.01 0.01 73 1014.7
20260502234511 48 340 6.0 13.0 0.01 0.01 0.01 75 1015.4
20260502233010 48 333 6.0 7.0 0.01 0.01 0.01 77 1015.6
20260502231512 48 32 0.0 2.0 0.01 0.01 0.01 78 1015.7
20260502230009 48 55 0.0 7.0 0.01 0.01 0.01 77 1015.8
20260502221507 50 0 1.0 3.0 0.00 0.00 0.00 66 1016.1
20260502220007 50 207 0.0 3.0 0.00 0.00 0.00 63 1015.9
20260502213007 50 44 0.0 0.0 0.00 0.00 0.00 56 1016.1
20260502211504 51 355 0.0 1.0 0.00 0.00 0.00 56 1016.1
20260502204536 50 6 0.0 2.0 0.00 0.00 0.00 55 1016.2
20260502203004 51 69 1.0 2.0 0.00 0.00 0.00 54 1016.2
20260502201525 51 166 0.0 4.0 0.00 0.00 0.00 53 1016.3
20260502200004 51 30 1.0 6.0 0.00 0.00 0.00 52 1016.5
20260502194505 51 348 2.0 5.0 0.00 0.00 0.00 51 1016.5
20260502181504 52 4 2.0 9.0 0.00 0.00 0.00 50 1016.1
20260502163004 54 0 6.0 16.0 0.00 0.00 0.00 46 1015.8
20260502161504 54 32 6.0 20.0 0.00 0.00 0.00 44 1015.8
20260502151506 54 8 5.0 19.0 0.00 0.00 0.00 46 1016.2
20260502123006 56 11 9.0 17.0 0.00 0.00 0.00 45 1016.4
20260502114506 56 31 5.0 16.0 0.00 0.00 0.00 47 1016.5
20260502113007 57 338 10.0 21.0 0.00 0.00 0.00 48 1016.5
20260502111507 55 336 6.0 18.0 0.00 0.00 0.00 51 1016.7
20260502110006 55 8 4.0 16.0 0.00 0.00 0.00 54 1016.7
20260502103004 55 41 5.0 26.0 0.00 0.00 0.00 53 1017.2
20260502101506 55 345 9.0 16.0 0.00 0.00 0.00 55 1017.0
20260502091506 56 0 8.0 19.0 0.00 0.00 0.00 54 1017.0
20260502070000 55 0 6.0 18.0 0.00 0.00 0.00 55 1016.6
20260502064458 55 289 7.0 17.0 0.00 0.00 0.00 53 1016.6
20260502062958 54 7 5.0 20.0 0.00 0.00 0.00 55 1016.1
20260502055958 53 78 9.0 16.0 0.00 0.00 0.00 60 1016.3
20260502054457 52 0 3.0 14.0 0.00 0.00 0.00 65 1016.4
20260502045955 52 63 4.0 15.0 0.00 0.00 0.00 67 1016.8
20260502044501 51 293 6.0 15.0 0.00 0.00 0.00 67 1016.7
20260502041453 51 59 5.0 12.0 0.00 0.00 0.00 71 1016.6
20260502035955 51 0 4.0 13.0 0.00 0.00 0.00 74 1016.8
20260502034452 50 30 3.0 12.0 0.00 0.00 0.00 75 1016.8
20260502032954 51 353 3.0 16.0 0.00 0.00 0.00 72 1016.7
20260502031455 51 355 3.0 16.0 0.00 0.00 0.00 70 1016.4
20260502025954 51 23 3.0 14.0 0.00 0.00 0.00 69 1016.4
20260502024457 52 41 3.0 12.0 0.00 0.00 0.00 69 1016.6
20260502021453 52 350 3.0 14.0 0.00 0.00 0.00 68 1016.5
20260502020000 51 8 3.0 10.0 0.00 0.00 0.00 70 1016.6
20260502014455 51 32 4.0 10.0 0.00 0.00 0.00 72 1016.5
20260502012953 51 324 5.0 15.0 0.00 0.00 0.00 72 1016.7